Change the Weather History Date:

Monday, January 6, 2014

  Actual Average Record
Temperature  
Mean Temperature 33 °F 46 °F  
Max Temperature 47 °F 58 °F 77 °F (2009)
Min Temperature 18 °F 35 °F 18 °F (2014)
Degree Days  
Heating Degree Days 32 19  
Month to date heating degree days 150 114  
Since 1 July heating degree days 931 1031  
Moisture  
Dew Point 17 °F    
Average Humidity 61    
Maximum Humidity 93    
Minimum Humidity 28    
Precipitation  
Precipitation 0.04 in 0.17 in 0.92 in (2009)
Month to date precipitation 0.36 0.99  
Year to date precipitation 0.36 0.99  
Snow  
Snow 0.00 in - - ()
Month to date snowfall 0.0  
Since 1 July snowfall 0.0  
Snow Depth 0.00 in    
Sea Level Pressure  
Sea Level Pressure 30.27 in    
Wind  
Wind Speed 16 mph (NW)    
Max Wind Speed 26 mph    
Max Gust Speed 37 mph    
Visibility 10 miles    
Events Rain    
T = Trace of Precipitation, MM = Missing Value Source: NWS Daily Summary

Daily Weather History Graph

Daily Weather History Graph

Search for Another Location

Airport or City:

Trip Planner

Search our weather history database for the weather conditions in past years. The results will help you decide how hot, cold, wet, or windy it might be!

Date:

Astronomy

Jan. 06, 2014 Rise Set
Actual Time 6:45 AM CST 4:55 PM CST
Civil Twilight 6:18 AM CST 5:21 PM CST
Nautical Twilight 5:48 AM CST 5:52 PM CST
Astronomical Twilight 5:18 AM CST 6:21 PM CST
Moon 10:23 AM CST (1/6) 11:02 PM CST (1/6)
Length of Visible Light 11h 03m
Length of Day
10h 10m
Waxing Crescent, 35% of the Moon is Illuminated
Jan 6
Waxing Crescent
Jan 7
First Quarter
Jan 15
Full
Jan 23
Last Quarter
Jan 30
New

Hourly Weather History & Observations

Time (CST) Temp. Windchill Dew Point Humidity Pressure Visibility Wind Dir Wind Speed Gust Speed Precip Events Conditions
12:19 AM 44.1 °F 36.5 °F 39.9 °F 85% 29.96 in 10.0 mi WNW 17.3 mph 23.0 mph 0.01 in Rain Light Rain
12:23 AM 44.1 °F 37.7 °F 39.0 °F 82% 29.97 in 10.0 mi WNW 12.7 mph 23.0 mph 0.01 in   Overcast
12:53 AM 42.1 °F 35.2 °F 39.0 °F 89% 29.99 in 10.0 mi WNW 12.7 mph - 0.01 in Rain Light Rain
1:11 AM 39.9 °F 31.1 °F 37.0 °F 89% 30.01 in 7.0 mi NW 17.3 mph 25.3 mph 0.02 in Rain Rain
1:53 AM 36.0 °F 24.2 °F 33.1 °F 89% 30.03 in 10.0 mi NNW 24.2 mph 32.2 mph 0.03 in   Overcast
2:23 AM 34.0 °F 22.4 °F 30.9 °F 89% 30.05 in 10.0 mi NW 20.7 mph 28.8 mph 0.00 in Rain Light Rain
2:53 AM 33.1 °F 23.0 °F 28.0 °F 82% 30.08 in 10.0 mi NW 15.0 mph 31.1 mph 0.00 in Rain Light Rain
3:53 AM 32.0 °F 20.8 °F 27.0 °F 82% 30.10 in 10.0 mi NW 17.3 mph 27.6 mph 0.00 in   Overcast
4:18 AM 32.0 °F 20.1 °F 26.1 °F 79% 30.11 in 10.0 mi NW 19.6 mph 27.6 mph 0.00 in   Overcast
4:53 AM 30.9 °F 17.5 °F 24.1 °F 76% 30.14 in 10.0 mi NW 24.2 mph 32.2 mph 0.00 in   Overcast
5:53 AM 30.0 °F 17.5 °F 23.0 °F 75% 30.19 in 10.0 mi NW 19.6 mph 29.9 mph 0.00 in   Overcast
6:53 AM 28.0 °F 16.1 °F 19.9 °F 72% 30.23 in 10.0 mi NNW 16.1 mph 24.2 mph 0.00 in   Overcast
7:53 AM 28.0 °F 15.3 °F 18.0 °F 66% 30.27 in 10.0 mi NW 18.4 mph 27.6 mph N/A   Overcast
8:46 AM 30.0 °F 18.3 °F 19.0 °F 64% 30.31 in 10.0 mi NW 17.3 mph 25.3 mph N/A   Scattered Clouds
8:53 AM 28.9 °F 16.1 °F 18.0 °F 64% 30.31 in 10.0 mi NW 19.6 mph 28.8 mph N/A   Mostly Cloudy
9:04 AM 30.0 °F 17.5 °F 18.0 °F 61% 30.32 in 10.0 mi NW 19.6 mph - N/A   Scattered Clouds
9:53 AM 32.0 °F 23.6 °F 19.0 °F 59% 30.32 in 10.0 mi NW 10.4 mph 23.0 mph N/A   Scattered Clouds
10:53 AM 33.1 °F 20.9 °F 18.0 °F 54% 30.33 in 10.0 mi NW 21.9 mph 27.6 mph N/A   Scattered Clouds
11:53 AM 34.0 °F 25.0 °F 17.1 °F 50% 30.32 in 10.0 mi WNW 12.7 mph - N/A   Clear
12:53 PM 35.1 °F 24.1 °F 12.0 °F 39% 30.32 in 10.0 mi NW 19.6 mph 26.5 mph N/A   Clear
1:53 PM 34.0 °F 21.8 °F 6.1 °F 31% 30.32 in 10.0 mi NNW 23.0 mph 29.9 mph N/A   Clear
2:53 PM 32.0 °F 20.8 °F 5.0 °F 32% 30.35 in 10.0 mi WNW 17.3 mph 25.3 mph N/A   Clear
3:53 PM 30.0 °F 19.1 °F 1.9 °F 30% 30.37 in 10.0 mi NW 15.0 mph 26.5 mph N/A   Clear
4:53 PM 28.0 °F 15.7 °F 1.9 °F 33% 30.40 in 10.0 mi WNW 17.3 mph 21.9 mph N/A   Clear
5:53 PM 26.1 °F 13.6 °F -0.0 °F 32% 30.43 in 10.0 mi NW 16.1 mph - N/A   Clear
6:53 PM 25.0 °F 14.2 °F -0.0 °F 34% 30.47 in 10.0 mi NW 11.5 mph - N/A   Clear
7:53 PM 23.0 °F 9.6 °F -2.9 °F 32% 30.50 in 10.0 mi NW 16.1 mph 25.3 mph N/A   Clear
8:53 PM 21.9 °F 9.8 °F -2.0 °F 35% 30.52 in 10.0 mi NNW 12.7 mph - N/A   Clear
9:53 PM 19.9 °F 9.3 °F -0.9 °F 40% 30.52 in 10.0 mi NW 9.2 mph - N/A   Clear
10:53 PM 19.0 °F 8.2 °F -0.0 °F 43% 30.53 in 10.0 mi NW 9.2 mph - N/A   Clear
11:53 PM 18.0 °F 6.9 °F 1.0 °F 48% 30.55 in 10.0 mi NW 9.2 mph - N/A   Clear